Location: Góry Miechowskie
(50.3599°N, 20.1803°E)
Time: 20:52:26
(UTC+00:00)

BREEZE-M DEB (TANK) - Visible Passes

Search period start: 13 September 2024 00:00
Search period end: 23 September 2024 00:00
Orbit: 296 x 18080 km, 52.9° (Epoch: 12 September)

Date Brightness Start Highest point End Pass type
(mag) Time Alt. Az. Time Alt. Az. Time Alt. Az.
14 Sep 8.4 04:12:49 10° SSE 05:19:28 31° ESE 05:37:30 10° ENE visible
17 Sep 10.0 02:46:55 10° ESE 02:57:12 11° ESE 03:05:09 10° E visible
19 Sep 9.8 02:42:30 10° SE 03:16:29 16° ESE 03:33:12 10° E visible
21 Sep 9.4 02:45:14 10° SE 03:35:38 22° ESE 03:54:51 10° ENE visible
